Location: Asheville, NC
(35.6000°N, 82.5500°W)
Time: 22:17:49
(UTC-04:00)

SO-50 - Pass Details

Date: 05 January 2018
Orbit: 595 x 692 km, 64.6° (Epoch: 20 July)

Event Time Altitude Azimuth Distance (km) Brightness Sun altitude
Rises 18:13:18 0° 340° (NNW) 2,960 ? -8.6°
Reaches altitude 10° 18:15:50 10° 352° (N) 2,064 ? -9.1°
Maximum altitude 18:19:56 30° 53° (NE) 1,201 ? -9.8°
Drops below altitude 10° 18:24:08 10° 114° (ESE) 2,104 ? -10.6°
Sets 18:26:43 0° 125° (SE) 3,027 ? -11.1°
